Radiation Dose at Monitoring Post of Fukushima Daini Nuclear Power Station
Date,Time,MP-1(microSv/h),MP-2(microSv/h),MP-3(microSv/h),MP-4(microSv/h),MP-5(microSv/h),MP-6(microSv/h),MP-7(microSv/h),Wind Direction,Wind Velocity(m/s),Rain
2015/09/29,00:00,0.479,0.278,0.496,0.458,0.454,0.224,0.194,northwest,5.0,No
2015/09/29,00:10,0.483,0.279,0.501,0.460,0.448,0.222,0.194,west-northwest,6.6,No
2015/09/29,00:20,0.482,0.279,0.498,0.458,0.452,0.224,0.195,west-northwest,6.4,No
2015/09/29,00:30,0.477,0.279,0.496,0.461,0.448,0.224,0.195,west-northwest,6.6,No
2015/09/29,00:40,0.484,0.280,0.501,0.459,0.450,0.224,0.196,west-northwest,5.6,No
2015/09/29,00:50,0.481,0.278,0.497,0.460,0.449,0.224,0.195,northwest,5.3,No
2015/09/29,01:00,0.484,0.281,0.499,0.462,0.448,0.224,0.194,northwest,2.8,No
2015/09/29,01:10,0.481,0.279,0.499,0.458,0.452,0.224,0.193,west-northwest,3.1,No
2015/09/29,01:20,0.480,0.280,0.499,0.461,0.447,0.224,0.195,west-northwest,2.4,No
2015/09/29,01:30,0.485,0.279,0.500,0.456,0.452,0.224,0.194,northwest,2.7,No
2015/09/29,01:40,0.480,0.279,0.497,0.462,0.449,0.224,0.195,northwest,2.4,No
2015/09/29,01:50,0.485,0.279,0.500,0.460,0.450,0.225,0.193,northwest,3.2,No
2015/09/29,02:00,0.481,0.279,0.495,0.461,0.450,0.225,0.196,north,2.4,No
2015/09/29,02:10,0.481,0.281,0.500,0.458,0.448,0.225,0.195,north-northwest,2.6,No
2015/09/29,02:20,0.483,0.279,0.496,0.459,0.453,0.224,0.194,north,3.9,No
2015/09/29,02:30,0.481,0.280,0.499,0.459,0.447,0.225,0.195,north-northwest,3.9,No
2015/09/29,02:40,0.484,0.278,0.501,0.458,0.453,0.224,0.195,north,2.7,No
2015/09/29,02:50,0.477,0.281,0.497,0.462,0.447,0.225,0.195,north,3.6,No
2015/09/29,03:00,0.482,0.279,0.502,0.458,0.452,0.225,0.195,north,3.3,No
2015/09/29,03:10,0.479,0.280,0.497,0.462,0.449,0.224,0.194,north,2.7,No
2015/09/29,03:20,0.483,0.278,0.504,0.458,0.449,0.225,0.195,north,2.8,No
2015/09/29,03:30,0.483,0.282,0.496,0.461,0.449,0.226,0.195,north-northwest,4.3,No
2015/09/29,03:40,0.478,0.279,0.502,0.458,0.451,0.225,0.195,north-northwest,6.1,No
2015/09/29,03:50,0.483,0.281,0.498,0.462,0.449,0.224,0.195,northwest,5.9,No
2015/09/29,04:00,0.479,0.278,0.500,0.458,0.450,0.225,0.195,north-northwest,4.4,No
2015/09/29,04:10,0.484,0.280,0.500,0.460,0.452,0.225,0.196,north,3.1,No
2015/09/29,04:20,0.480,0.278,0.497,0.460,0.449,0.225,0.195,north,2.3,No
2015/09/29,04:30,0.484,0.279,0.501,0.459,0.452,0.224,0.195,north,1.5,No
2015/09/29,04:40,0.480,0.279,0.496,0.461,0.448,0.225,0.195,north-northwest,2.5,No
2015/09/29,04:50,0.481,0.280,0.501,0.458,0.452,0.225,0.196,north-northwest,3.0,No
2015/09/29,05:00,0.483,0.280,0.497,0.464,0.447,0.225,0.195,north-northwest,2.9,No
2015/09/29,05:10,0.480,0.279,0.500,0.457,0.454,0.224,0.196,north-northwest,3.5,No
2015/09/29,05:20,0.485,0.279,0.497,0.461,0.448,0.225,0.193,north-northwest,3.6,No
2015/09/29,05:30,0.482,0.279,0.500,0.457,0.455,0.225,0.195,northwest,4.4,No
2015/09/29,05:40,0.485,0.281,0.499,0.463,0.449,0.224,0.196,northwest,3.6,No
2015/09/29,05:50,0.479,0.280,0.497,0.457,0.451,0.225,0.196,north-northwest,2.9,Yes
2015/09/29,06:00,0.485,0.281,0.501,0.462,0.447,0.226,0.194,north-northwest,2.0,Yes
2015/09/29,06:10,0.479,0.280,0.498,0.458,0.451,0.224,0.197,north-northwest,2.1,Yes
2015/09/29,06:20,0.484,0.279,0.500,0.462,0.449,0.225,0.194,west-northwest,3.6,No
2015/09/29,06:30,0.481,0.277,0.496,0.459,0.453,0.224,0.195,west-northwest,4.7,No
2015/09/29,06:40,0.485,0.280,0.501,0.463,0.448,0.226,0.194,west-northwest,5.6,No
2015/09/29,06:50,0.482,0.278,0.496,0.459,0.451,0.225,0.195,west-northwest,5.6,No
2015/09/29,07:00,0.483,0.279,0.503,0.460,0.448,0.226,0.194,northwest,6.4,No
2015/09/29,07:10,0.484,0.278,0.499,0.460,0.451,0.225,0.196,northwest,4.4,No
2015/09/29,07:20,0.480,0.281,0.500,0.459,0.450,0.225,0.195,north-northwest,5.0,No
2015/09/29,07:30,0.484,0.279,0.499,0.460,0.449,0.224,0.195,north-northwest,5.0,Yes
2015/09/29,07:40,0.478,0.281,0.498,0.459,0.451,0.224,0.194,north,4.4,No
2015/09/29,07:50,0.484,0.278,0.499,0.461,0.446,0.224,0.196,north-northwest,3.6,No
2015/09/29,08:00,0.482,0.280,0.497,0.456,0.454,0.226,0.195,northwest,2.2,No
2015/09/29,08:10,0.482,0.279,0.501,0.461,0.446,0.224,0.195,west-northwest,2.4,No
2015/09/29,08:20,0.484,0.279,0.495,0.456,0.453,0.224,0.195,north-northwest,2.7,No
2015/09/29,08:30,0.481,0.280,0.502,0.461,0.449,0.226,0.196,northwest,2.8,No
2015/09/29,08:40,0.486,0.278,0.498,0.459,0.452,0.223,0.194,north-northwest,2.0,No
2015/09/29,08:50,0.479,0.281,0.498,0.456,0.450,0.225,0.196,north,1.4,No
2015/09/29,09:00,0.484,0.279,0.502,0.461,0.447,0.223,0.195,west-northwest,1.1,No
2015/09/29,09:10,0.484,0.279,0.495,0.457,0.452,0.224,0.195,north-northwest,1.4,No
2015/09/29,09:20,0.479,0.281,0.503,0.459,0.448,0.225,0.195,northwest,1.6,No
2015/09/29,09:30,0.485,0.278,0.497,0.462,0.445,0.224,0.194,northwest,0.5,No
2015/09/29,09:40,0.480,0.280,0.499,0.456,0.453,0.224,0.196,west-northwest,0.9,No
2015/09/29,09:50,0.479,0.279,0.501,0.461,0.447,0.223,0.195,northwest,0.5,No
2015/09/29,10:00,0.483,0.277,0.497,0.459,0.443,0.225,0.193,west-southwest,0.6,No
2015/09/29,10:10,0.481,0.277,0.501,0.458,0.443,0.226,0.195,-,CALM,No
2015/09/29,10:20,0.479,0.275,0.499,0.455,0.454,0.225,0.193,south,1.8,No
2015/09/29,10:30,0.477,0.276,0.498,0.454,0.450,0.225,0.194,south,2.0,No
2015/09/29,10:40,0.476,0.281,0.504,0.455,0.448,0.224,0.193,south,3.0,No
2015/09/29,10:50,0.475,0.279,0.498,0.455,0.446,0.225,0.196,south,2.3,No
2015/09/29,11:00,0.480,0.278,0.494,0.461,0.450,0.226,0.195,south,1.9,No
2015/09/29,11:10,0.486,0.282,0.501,0.462,0.454,0.225,0.195,south,2.9,No
2015/09/29,11:20,0.483,0.282,0.500,0.461,0.452,0.224,0.194,south-southeast,2.7,No
2015/09/29,11:30,0.481,0.281,0.497,0.459,0.449,0.225,0.194,south-southeast,3.6,No
2015/09/29,11:40,0.477,0.279,0.495,0.457,0.449,0.226,0.194,southeast,3.3,No
2015/09/29,11:50,0.478,0.278,0.495,0.456,0.446,0.224,0.197,south-southeast,3.8,No
2015/09/29,12:00,0.480,0.276,0.504,0.458,0.444,0.226,0.196,south-southeast,2.6,No
2015/09/29,12:10,0.485,0.281,0.501,0.463,0.453,0.227,0.195,south-southeast,3.0,No
2015/09/29,12:20,0.484,0.281,0.498,0.462,0.452,0.226,0.195,south-southeast,3.6,No
2015/09/29,12:30,0.480,0.279,0.495,0.457,0.451,0.225,0.195,south-southeast,3.3,No
2015/09/29,12:40,0.481,0.278,0.501,0.457,0.448,0.226,0.197,south-southeast,3.3,No
2015/09/29,12:50,0.486,0.281,0.502,0.463,0.445,0.227,0.197,south-southeast,3.3,No
2015/09/29,13:00,0.484,0.281,0.498,0.461,0.453,0.227,0.196,south,2.7,No
2015/09/29,13:10,0.480,0.278,0.496,0.457,0.453,0.225,0.194,south,1.6,No
2015/09/29,13:20,0.485,0.281,0.505,0.458,0.450,0.226,0.197,west-northwest,2.8,No
2015/09/29,13:30,0.484,0.281,0.501,0.467,0.451,0.226,0.196,west-southwest,4.2,No
2015/09/29,13:40,0.480,0.278,0.499,0.461,0.456,0.225,0.195,west-northwest,4.2,No
2015/09/29,13:50,0.485,0.282,0.507,0.460,0.452,0.225,0.197,west-northwest,4.5,No
2015/09/29,14:00,0.485,0.281,0.501,0.465,0.448,0.226,0.197,west-northwest,6.1,No
2015/09/29,14:10,0.481,0.280,0.498,0.462,0.447,0.226,0.196,north,5.0,No
2015/09/29,14:20,0.482,0.279,0.496,0.457,0.446,0.225,0.195,north-northwest,2.1,No
2015/09/29,14:30,0.485,0.279,0.495,0.462,0.453,0.224,0.195,northwest,2.2,No
2015/09/29,14:40,0.484,0.277,0.497,0.465,0.452,0.225,0.198,north-northwest,1.4,No
2015/09/29,14:50,0.480,0.278,0.506,0.461,0.452,0.226,0.197,north-northwest,1.6,No
2015/09/29,15:00,0.485,0.282,0.501,0.457,0.448,0.225,0.195,west-northwest,1.7,No
2015/09/29,15:10,0.484,0.280,0.497,0.465,0.449,0.225,0.196,west-northwest,4.8,No
2015/09/29,15:20,0.482,0.278,0.501,0.463,0.454,0.227,0.197,north,2.4,No
2015/09/29,15:30,0.481,0.281,0.505,0.458,0.451,0.226,0.197,north,4.4,No
2015/09/29,15:40,0.488,0.282,0.499,0.463,0.446,0.226,0.196,west-northwest,1.8,No
2015/09/29,15:50,0.483,0.279,0.498,0.465,0.449,0.226,0.196,north-northwest,2.7,No
2015/09/29,16:00,0.481,0.282,0.505,0.459,0.454,0.226,0.197,northwest,3.0,No
2015/09/29,16:10,0.487,0.282,0.501,0.462,0.453,0.226,0.196,north,3.5,No
2015/09/29,16:20,0.486,0.278,0.497,0.466,0.448,0.226,0.195,north,4.4,No
2015/09/29,16:30,0.481,0.281,0.505,0.460,0.452,0.226,0.197,north-northeast,4.5,No
2015/09/29,16:40,0.489,0.282,0.502,0.462,0.456,0.225,0.195,north,4.1,No
2015/09/29,16:50,0.484,0.281,0.499,0.465,0.448,0.227,0.195,northwest,4.0,No
2015/09/29,17:00,0.486,0.283,0.506,0.459,0.457,0.226,0.196,north-northwest,1.8,No
2015/09/29,17:10,0.487,0.281,0.500,0.466,0.455,0.225,0.196,north-northwest,1.4,No
2015/09/29,17:20,0.483,0.282,0.506,0.461,0.450,0.226,0.197,north-northwest,1.7,No
2015/09/29,17:30,0.487,0.281,0.503,0.466,0.455,0.225,0.195,north-northeast,2.0,No
2015/09/29,17:40,0.485,0.282,0.503,0.463,0.451,0.227,0.197,north,4.7,No
2015/09/29,17:50,0.485,0.281,0.505,0.464,0.456,0.226,0.196,north,3.9,No
2015/09/29,18:00,0.487,0.281,0.501,0.464,0.451,0.227,0.197,north-northeast,5.0,No
2015/09/29,18:10,0.483,0.282,0.506,0.461,0.455,0.225,0.196,north-northeast,6.7,No
2015/09/29,18:20,0.486,0.281,0.501,0.467,0.450,0.226,0.196,north-northeast,6.1,No
2015/09/29,18:30,0.483,0.282,0.506,0.460,0.454,0.227,0.197,north-northeast,6.2,No
2015/09/29,18:40,0.487,0.280,0.503,0.466,0.451,0.228,0.197,north-northeast,5.6,No
2015/09/29,18:50,0.485,0.282,0.503,0.461,0.454,0.226,0.196,north,5.3,No
2015/09/29,19:00,0.483,0.281,0.501,0.466,0.450,0.226,0.197,north,3.6,No
2015/09/29,19:10,0.488,0.282,0.502,0.461,0.453,0.225,0.197,north,3.9,No
2015/09/29,19:20,0.482,0.279,0.503,0.466,0.453,0.226,0.197,northwest,2.3,No
2015/09/29,19:30,0.489,0.280,0.499,0.462,0.451,0.225,0.195,north-northwest,1.6,No
2015/09/29,19:40,0.483,0.280,0.505,0.466,0.453,0.227,0.197,north,2.0,No
2015/09/29,19:50,0.488,0.283,0.501,0.463,0.450,0.226,0.196,north-northwest,2.4,No
2015/09/29,20:00,0.482,0.280,0.504,0.463,0.453,0.226,0.197,north,3.7,No
2015/09/29,20:10,0.486,0.281,0.500,0.464,0.450,0.226,0.196,north,5.2,No
2015/09/29,20:20,0.484,0.280,0.507,0.464,0.451,0.226,0.197,north,5.3,No
2015/09/29,20:30,0.486,0.282,0.500,0.465,0.452,0.226,0.196,north-northwest,5.3,No
2015/09/29,20:40,0.483,0.280,0.506,0.464,0.452,0.227,0.196,north-northwest,6.7,No
2015/09/29,20:50,0.483,0.282,0.501,0.464,0.453,0.226,0.196,northwest,4.7,No
2015/09/29,21:00,0.484,0.280,0.506,0.464,0.451,0.227,0.197,west-northwest,5.9,No
2015/09/29,21:10,0.483,0.281,0.501,0.464,0.454,0.226,0.198,northwest,4.3,No
2015/09/29,21:20,0.486,0.281,0.506,0.464,0.450,0.226,0.197,north-northwest,4.4,No
2015/09/29,21:30,0.485,0.282,0.501,0.466,0.454,0.225,0.197,north,4.1,No
2015/09/29,21:40,0.487,0.280,0.504,0.463,0.449,0.226,0.197,north-northwest,3.8,No
2015/09/29,21:50,0.483,0.280,0.503,0.465,0.454,0.227,0.197,northwest,4.4,No
2015/09/29,22:00,0.487,0.280,0.504,0.464,0.450,0.227,0.197,west-northwest,7.0,No
2015/09/29,22:10,0.484,0.281,0.503,0.465,0.454,0.226,0.196,northwest,8.5,No
2015/09/29,22:20,0.486,0.281,0.504,0.462,0.448,0.226,0.196,northwest,12.5,No
2015/09/29,22:30,0.482,0.280,0.504,0.463,0.455,0.227,0.197,northwest,10.3,No
2015/09/29,22:40,0.488,0.280,0.503,0.462,0.450,0.226,0.197,northwest,9.6,No
2015/09/29,22:50,0.483,0.280,0.504,0.464,0.453,0.228,0.196,northwest,10.4,No
2015/09/29,23:00,0.488,0.282,0.505,0.462,0.449,0.225,0.197,west-northwest,9.4,No
2015/09/29,23:10,0.484,0.282,0.505,0.465,0.451,0.227,0.197,northwest,7.0,No
2015/09/29,23:20,0.486,0.280,0.502,0.465,0.450,0.227,0.196,northwest,8.0,No
2015/09/29,23:30,0.485,0.280,0.503,0.464,0.454,0.227,0.198,west-northwest,10.1,No
2015/09/29,23:40,0.489,0.283,0.502,0.462,0.451,0.226,0.197,northwest,8.0,No
2015/09/29,23:50,0.485,0.280,0.505,0.465,0.455,0.227,0.197,northwest,6.1,No
